Location: Aalsum
(53.3404°N, 6.0062°E)
Time: 11:27:15
(UTC+00:00)

Cosmos 2279 Rocket - Visible Passes

Search period start: 28 September 2023 00:00
Search period end: 08 October 2023 00:00
Orbit: 962 x 979 km, 82.9° (Epoch: 27 September)

Date Brightness Start Highest point End Pass type
(mag) Time Alt. Az. Time Alt. Az. Time Alt. Az.
28 Sep 5.4 01:05:52 10° NNW 01:09:01 29° NW 01:09:01 29° NW visible
28 Sep 6.1 22:00:19 10° NNE 22:03:34 15° NE 22:03:34 15° NE visible
28 Sep 5.2 23:44:23 10° N 23:48:07 37° N 23:48:07 37° N visible
29 Sep 5.7 01:30:16 10° NNW 01:32:40 21° NW 01:32:40 21° NW visible
29 Sep 5.8 22:23:41 10° N 22:27:14 22° NE 22:27:14 22° NE visible
30 Sep 5.3 00:08:25 10° NNW 00:11:47 35° NNW 00:11:47 35° NNW visible
30 Sep 6.0 01:55:01 10° NW 01:56:20 14° NW 01:56:20 14° NW visible
30 Sep 5.6 22:47:22 10° N 22:50:54 28° NNE 22:50:54 28° NNE visible
01 Oct 5.5 00:32:33 10° NNW 00:35:27 28° NNW 00:35:27 28° NNW visible
01 Oct 6.2 21:27:34 10° NNE 21:30:01 13° NE 21:30:01 13° NE visible
01 Oct 5.5 23:11:14 10° N 23:14:34 31° NNE 23:14:34 31° NNE visible
02 Oct 5.8 00:56:53 10° NNW 00:59:07 21° NW 00:59:07 21° NW visible
02 Oct 6.0 21:50:42 10° N 21:53:43 18° NE 21:53:43 18° NE visible
02 Oct 5.5 23:35:12 10° N 23:38:15 31° N 23:38:15 31° N visible
03 Oct 6.1 01:21:27 10° NNW 01:22:49 15° NW 01:22:49 15° NW visible
03 Oct 5.8 22:14:17 10° N 22:17:25 24° NNE 22:17:25 24° NNE visible
03 Oct 5.7 23:59:17 10° NNW 00:01:57 27° NNW 00:01:57 27° NNW visible
04 Oct 6.3 20:55:08 10° NNE 20:56:34 11° NE 20:56:34 11° NE visible
04 Oct 5.7 22:38:04 10° N 22:41:07 27° NNE 22:41:07 27° NNE visible
05 Oct 5.9 00:23:32 10° NNW 00:25:40 21° NNW 00:25:40 21° NNW visible
05 Oct 6.1 21:17:46 10° NNE 21:20:17 16° NE 21:20:17 16° NE visible
05 Oct 5.7 23:02:00 10° N 23:04:50 28° N 23:04:50 28° N visible
06 Oct 6.1 00:47:59 10° NNW 00:49:23 16° NW 00:49:23 16° NW visible
06 Oct 5.9 21:41:13 10° N 21:44:00 20° NNE 21:44:00 20° NNE visible
06 Oct 5.8 23:26:03 10° NNW 23:28:34 26° NNW 23:28:34 26° NNW visible
07 Oct 6.4 01:12:50 10° NW 01:13:07 11° NW 01:13:07 11° NW visible
07 Oct 5.8 22:04:56 10° N 22:07:44 24° NNE 22:07:44 24° NNE visible
